Home > Weather > Kloten > Past weeks

Flag for Switzerland Past Weather in Kloten, Zurich, Switzerland — Yesterday and Last 2 Weeks

Now
70 °F

Thundershowers. Broken clouds.


Feels Like: 70 °F
Forecast: 58 / 70 °F
Wind: 16 mph from West

Location: Zurich-Kloten

Current Time: Jun 25, 2016 at 4:07:32 PM

Latest Report: Jun 25, 2016 at 3:20 PM


Visibility: N/A

Pressure: 29.98 "Hg

Humidity: 64%

Dew Point: 57 °F

Location of KlotenLocation

Past Weather in Kloten — Graph

°F

Kloten Temperature Yesterday

Maximum temperature yesterday: 90 °F (at 3:20 PM)
Minimum temperature yesterday: 63 °F (at 4:20 AM)
Average temperature yesterday: 76 °F

High & Low Weather Summary for the Past Weeks

 TemperatureHumidityPressure
High90 °F (Jun 23, 4:20 PM)100% (Jun 13, 4:50 AM)30.27 "Hg (Jun 13, 4:50 AM)
Low50 °F (Jun 17, 5:20 AM)36% (Jun 10, 5:20 PM)29.59 "Hg (Jun 15, 4:50 AM)
Average63 °F80%29.97 "Hg
* Reported Jun 10 2:20 PM — Jun 25 2:50 PM, Kloten, Weather by CustomWeather, © 2016

Note: Actual official high and low records may vary slightly from our data, if they occured in-between our weather recording intervals... More about our weather records

Advertising

Kloten Weather History for the Previous 24 Hours

Scroll right to see more
 ConditionsComfort  
Time TempWeatherWind HumidityBarometerVisibility
2:50 PM
Sat, Jun 25
73 °FPartly sunny.10 mph69%29.98 "HgN/A
2:20 PM75 °FBroken clouds.7 mph65%29.95 "HgN/A
1:50 PM73 °FBroken clouds.7 mph69%29.98 "HgN/A
1:20 PM70 °FBroken clouds.7 mph83%29.98 "HgN/A
12:50 PM70 °FBroken clouds.6 mph73%29.98 "HgN/A
12:20 PM70 °FBroken clouds.5 mph78%29.98 "HgN/A
11:50 AM68 °FBroken clouds.5 mph83%29.98 "HgN/A
11:20 AM68 °FBroken clouds.5 mph83%29.98 "HgN/A
10:50 AM68 °FBroken clouds.5 mph83%29.98 "HgN/A
10:20 AM66 °FBroken clouds.5 mph94%29.98 "HgN/A
9:50 AM66 °FBroken clouds.3 mph94%29.98 "HgN/A
9:20 AM64 °FSprinkles. Broken clouds.5 mph100%30.01 "HgN/A
8:50 AM64 °FRain showers. Broken clouds.3 mph94%30.01 "Hg6 mi
8:20 AM64 °FRain showers. Partly sunny.3 mph94%30.01 "HgN/A
7:50 AM66 °FSprinkles. Broken clouds.8 mph88%30.01 "HgN/A
7:20 AM64 °FScattered showers. Broken clouds.2 mph100%29.98 "HgN/A
6:50 AM66 °FRain showers. Partly sunny.6 mph94%30.01 "HgN/A
6:20 AM64 °FPartly cloudy.8 mph100%30.01 "HgN/A
5:50 AM64 °FSprinkles. Partly cloudy.5 mph94%30.01 "HgN/A
5:20 AM64 °FRain showers. Passing clouds.7 mph94%30.01 "HgN/A
4:50 AM66 °FSprinkles. Passing clouds.13 mph88%30.04 "HgN/A
4:20 AM66 °FPartly cloudy.2 mph83%29.98 "HgN/A
3:50 AM66 °FPassing clouds.6 mph83%29.98 "HgN/A
3:20 AM66 °FPassing clouds.8 mph88%30.01 "HgN/A
2:50 AM66 °FPassing clouds.10 mph88%30.04 "HgN/A
1:50 AM66 °FPassing clouds.2 mph88%30.01 "HgN/A
1:20 AM68 °FPassing clouds.7 mph83%30.01 "HgN/A
12:50 AM68 °FPassing clouds.3 mph83%30.04 "HgN/A
12:20 AM68 °FPassing clouds.8 mph88%30.04 "HgN/A
11:50 PM
Fri, Jun 24
68 °FPartly cloudy.3 mph83%30.07 "HgN/A
11:20 PM70 °FThundershowers. Passing clouds.6 mph73%30.01 "HgN/A
10:50 PM68 °FThundershowers. Partly cloudy.7 mph88%30.01 "HgN/A
10:20 PM68 °FThundershowers. Broken clouds.12 mph83%30.01 "HgN/A
9:50 PM70 °FThunderstorms. Broken clouds.15 mph83%30.04 "HgN/A
9:20 PM81 °FThundershowers. Broken clouds.5 mph58%30.01 "HgN/A
8:50 PM82 °FThundershowers. Scattered clouds.6 mph51%29.98 "HgN/A
8:20 PM82 °FScattered clouds.5 mph51%29.98 "HgN/A
7:50 PM84 °FScattered clouds.8 mph48%29.98 "HgN/A
7:20 PM86 °FPassing clouds.8 mph46%29.98 "HgN/A
6:50 PM88 °FPassing clouds.8 mph43%29.98 "HgN/A
6:20 PM88 °FPassing clouds.8 mph43%29.98 "HgN/A
5:50 PM88 °FPassing clouds.7 mph46%30.01 "HgN/A
5:20 PM88 °FPassing clouds.8 mph43%30.01 "HgN/A
4:50 PM88 °FPassing clouds.6 mph49%30.01 "HgN/A
4:20 PM90 °FPassing clouds.6 mph41%30.01 "HgN/A
Weather by CustomWeather, © 2016

See weather overviewHow to use our weather pages